,,Stat6,,Stat2,,Stat8,,Stat9,,Stat10,,Wind1,,Wind1,
time,status,PA1M_AVG,status,PR1M_SUM,status,RH1M_AVG,status,SR1M_AVG,status,TA1M_AVG,status,W1dAve1m,status,W1sAve1m,
2008-07-30, 00:00:00,VALID,917.856,VALID,0,VALID,100,VALID,-0.0849042,VALID,20.7633,VALID,139,VALID,0,
2008-07-30, 00:01:00,VALID,917.854,VALID,0,VALID,100,VALID,-0.101885,VALID,20.7601,VALID,139,VALID,0,
2008-07-30, 00:02:00,VALID,917.852,VALID,0,VALID,100,VALID,-0.0849042,VALID,20.7666,VALID,121,VALID,0,
2008-07-30, 00:03:00,VALID,917.832,VALID,0,VALID,100,VALID,-0.0849042,VALID,20.7601,VALID,118,VALID,0,
2008-07-30, 00:04:00,VALID,917.821,VALID,0,VALID,100,VALID,-0.0849042,VALID,20.7504,VALID,118,VALID,0,
2008-07-30, 00:05:00,VALID,917.797,VALID,0,VALID,100,VALID,-0.0849042,VALID,20.7344,VALID,118,VALID,0,
2008-07-30, 00:06:00,VALID,917.778,VALID,0,VALID,100,VALID,-0.0849042,VALID,20.7246,VALID,118,VALID,0,
2008-07-30, 00:07:00,VALID,917.762,VALID,0,VALID,100,VALID,-0.0849042,VALID,20.7117,VALID,118,VALID,0,
2008-07-30, 00:08:00,VALID,917.749,VALID,0,VALID,100,VALID,-0.0679233,VALID,20.6819,VALID,118,VALID,0,
2008-07-30, 00:09:00,VALID,917.73,VALID,0,VALID,100,VALID,-0.0679233,VALID,20.6562,VALID,113,VALID,0,
2008-07-30, 00:10:00,VALID,917.726,VALID,0,VALID,100,VALID,-0.0679233,VALID,20.633,VALID,107,VALID,0,
2008-07-30, 00:11:00,VALID,917.711,VALID,0,VALID,100,VALID,-0.0679233,VALID,20.627,VALID,107,VALID,0,
2008-07-30, 00:12:00,VALID,917.693,VALID,0,VALID,100,VALID,-0.0509425,VALID,20.6103,VALID,107,VALID,0,
2008-07-30, 00:13:00,VALID,917.686,VALID,0,VALID,100,VALID,-0.0849042,VALID,20.6075,VALID,107,VALID,0,
2008-07-30, 00:14:00,VALID,917.665,VALID,0,VALID,100,VALID,-0.101885,VALID,20.5981,VALID,107,VALID,0,
2008-07-30, 00:15:00,VALID,917.645,VALID,0,VALID,100,VALID,-0.0679233,VALID,20.5978,VALID,107,VALID,0,
2008-07-30, 00:16:00,VALID,917.626,VALID,0,VALID,100,VALID,-0.0679233,VALID,20.5813,VALID,107,VALID,0,
2008-07-30, 00:17:00,VALID,917.612,VALID,0,VALID,100,VALID,-0.101885,VALID,20.5721,VALID,107,VALID,0,
2008-07-30, 00:18:00,VALID,917.596,VALID,0,VALID,100,VALID,-0.0849042,VALID,20.5721,VALID,107,VALID,0,
2008-07-30, 00:19:00,VALID,917.592,VALID,0,VALID,100,VALID,-0.0679233,VALID,20.5424,VALID,109,VALID,0,
2008-07-30, 00:20:00,VALID,917.576,VALID,0,VALID,100,VALID,-0.0849042,VALID,20.5202,VALID,109,VALID,0,
2008-07-30, 00:21:00,VALID,917.567,VALID,0,VALID,100,VALID,-0.101885,VALID,20.4904,VALID,108,VALID,0,
2008-07-30, 00:22:00,VALID,917.55,VALID,0,VALID,100,VALID,-0.101885,VALID,20.4747,VALID,108,VALID,0.0562119,
2008-07-30, 00:23:00,VALID,917.549,VALID,0,VALID,100,VALID,-0.0849042,VALID,20.4677,VALID,95,VALID,0,
2008-07-30, 00:24:00,VALID,917.544,VALID,0,VALID,100,VALID,-0.0849042,VALID,20.4255,VALID,100,VALID,0,
2008-07-30, 00:25:00,VALID,917.55,VALID,0,VALID,100,VALID,-0.101885,VALID,20.3903,VALID,110,VALID,0,
2008-07-30, 00:26:00,VALID,917.538,VALID,0,VALID,100,VALID,-0.118866,VALID,20.3581,VALID,102,VALID,0,
2008-07-30, 00:27:00,VALID,917.547,VALID,0,VALID,100,VALID,-0.101885,VALID,20.3281,VALID,104,VALID,0.0314317,
2008-07-30, 00:28:00,VALID,917.54,VALID,0,VALID,100,VALID,-0.101885,VALID,20.3022,VALID,96,VALID,0,
2008-07-30, 00:29:00,VALID,917.556,VALID,0,VALID,100,VALID,-0.101885,VALID,20.2732,VALID,105,VALID,0.607195,
2008-07-30, 00:30:00,VALID,917.545,VALID,0,VALID,100,VALID,-0.0509425,VALID,20.2405,VALID,102,VALID,0.474355,
2008-07-30, 00:31:00,VALID,917.531,VALID,0,VALID,100,VALID,-0.118866,VALID,20.2116,VALID,98,VALID,0.675327,
2008-07-30, 00:32:00,VALID,917.515,VALID,0,VALID,100,VALID,-0.101885,VALID,20.1753,VALID,101,VALID,0.488281,
2008-07-30, 00:33:00,VALID,917.512,VALID,0,VALID,100,VALID,-0.101885,VALID,20.1756,VALID,112,VALID,0.369391,
2008-07-30, 00:34:00,VALID,917.484,VALID,0,VALID,100,VALID,-0.0509425,VALID,20.1583,VALID,120,VALID,0.213844,
2008-07-30, 00:35:00,VALID,917.467,VALID,0,VALID,100,VALID,-0.0169808,VALID,20.1549,VALID,127,VALID,0.483789,
2008-07-30, 00:36:00,VALID,917.447,VALID,0,VALID,100,VALID,0,VALID,20.1551,VALID,130,VALID,0.596413,
2008-07-30, 00:37:00,VALID,917.442,VALID,0,VALID,100,VALID,0,VALID,20.1549,VALID,134,VALID,0.806734,
2008-07-30, 00:38:00,VALID,917.435,VALID,0,VALID,100,VALID,0,VALID,20.1516,VALID,145,VALID,0.824132,
2008-07-30, 00:39:00,VALID,917.405,VALID,0,VALID,100,VALID,-0.0339617,VALID,20.1613,VALID,139,VALID,1.35263,
2008-07-30, 00:40:00,VALID,917.383,VALID,0,VALID,100,VALID,0,VALID,20.1646,VALID,143,VALID,1.04632,
2008-07-30, 00:41:00,VALID,917.37,VALID,0,VALID,100,VALID,0.0169808,VALID,20.1576,VALID,146,VALID,0.681463,
2008-07-30, 00:42:00,VALID,917.331,VALID,0,VALID,100,VALID,0,VALID,20.1746,VALID,159,VALID,1.42871,
2008-07-30, 00:43:00,VALID,917.317,VALID,0,VALID,100,VALID,-0.0169808,VALID,20.1876,VALID,161,VALID,1.38616,
2008-07-30, 00:44:00,VALID,917.294,VALID,0,VALID,100,VALID,-0.0339617,VALID,20.1811,VALID,161,VALID,1.01228,
2008-07-30, 00:45:00,VALID,917.274,VALID,0,VALID,100,VALID,0,VALID,20.1738,VALID,159,VALID,1.26022,
2008-07-30, 00:46:00,VALID,917.245,VALID,0,VALID,100,VALID,0,VALID,20.1773,VALID,162,VALID,1.40508,
2008-07-30, 00:47:00,VALID,917.226,VALID,0,VALID,100,VALID,0,VALID,20.1838,VALID,163,VALID,0.89577,
2008-07-30, 00:48:00,VALID,917.216,VALID,0,VALID,100,VALID,-0.0509425,VALID,20.1876,VALID,163,VALID,1.39291,
2008-07-30, 00:49:00,VALID,917.196,VALID,0,VALID,100,VALID,-0.0849042,VALID,20.1848,VALID,173,VALID,1.23118,
2008-07-30, 00:50:00,VALID,917.175,VALID,0,VALID,100,VALID,-0.118866,VALID,20.1823,VALID,171,VALID,0.866279,
2008-07-30, 00:51:00,VALID,917.134,VALID,0,VALID,100,VALID,-0.101885,VALID,20.1756,VALID,183,VALID,1.19513,
2008-07-30, 00:52:00,VALID,917.115,VALID,0,VALID,100,VALID,-0.118866,VALID,20.1664,VALID,173,VALID,1.56753,
2008-07-30, 00:53:00,VALID,917.088,VALID,0,VALID,100,VALID,-0.0679233,VALID,20.1494,VALID,174,VALID,1.43895,
2008-07-30, 00:54:00,VALID,917.067,VALID,0,VALID,100,VALID,-0.101885,VALID,20.1399,VALID,173,VALID,1.0041,
2008-07-30, 00:55:00,VALID,917.051,VALID,0,VALID,100,VALID,-0.101885,VALID,20.1299,VALID,174,VALID,1.12585,
2008-07-30, 00:56:00,VALID,917.026,VALID,0,VALID,100,VALID,-0.0679233,VALID,20.1267,VALID,169,VALID,1.04941,
2008-07-30, 00:57:00,VALID,916.999,VALID,0,VALID,100,VALID,-0.0849042,VALID,20.1207,VALID,136,VALID,0.685404,
2008-07-30, 00:58:00,VALID,916.998,VALID,0,VALID,100,VALID,-0.118866,VALID,20.1239,VALID,147,VALID,0.215116,
2008-07-30, 00:59:00,VALID,916.961,VALID,0,VALID,100,VALID,-0.101885,VALID,20.1045,VALID,159,VALID,0.0525568,
2008-07-30, 01:00:00,VALID,916.97,VALID,0,VALID,100,VALID,-0.101885,VALID,20.0947,VALID,178,VALID,0.233103,
2008-07-30, 01:01:00,VALID,916.932,VALID,0,VALID,100,VALID,-0.0679233,VALID,20.0747,VALID,159,VALID,1.37147,
2008-07-30, 01:02:00,VALID,916.917,VALID,0,VALID,100,VALID,-0.101885,VALID,20.0688,VALID,157,VALID,1.01344,
2008-07-30, 01:03:00,VALID,916.891,VALID,0,VALID,100,VALID,-0.101885,VALID,20.0618,VALID,156,VALID,0.89974,
2008-07-30, 01:04:00,VALID,916.858,VALID,0,VALID,100,VALID,-0.0849042,VALID,20.0653,VALID,170,VALID,1.05171,
2008-07-30, 01:05:00,VALID,916.857,VALID,0,VALID,100,VALID,-0.0509425,VALID,20.0618,VALID,163,VALID,1.00953,
2008-07-30, 01:06:00,VALID,916.851,VALID,0,VALID,100,VALID,-0.0509425,VALID,20.0455,VALID,169,VALID,1.06008,
2008-07-30, 01:07:00,VALID,916.856,VALID,0,VALID,100,VALID,-0.0679233,VALID,20.029,VALID,175,VALID,0.751803,
2008-07-30, 01:08:00,VALID,916.852,VALID,0,VALID,100,VALID,-0.0849042,VALID,20.0156,VALID,179,VALID,0.741461,
2008-07-30, 01:09:00,VALID,916.851,VALID,0,VALID,100,VALID,-0.0679233,VALID,20.0193,VALID,183,VALID,0.663517,
2008-07-30, 01:10:00,VALID,916.826,VALID,0,VALID,100,VALID,-0.101885,VALID,20.0231,VALID,170,VALID,0.323742,
2008-07-30, 01:11:00,VALID,916.811,VALID,0,VALID,100,VALID,-0.0339617,VALID,20.0128,VALID,161,VALID,0.0432292,
2008-07-30, 01:12:00,VALID,916.804,VALID,0,VALID,100,VALID,-0.0679233,VALID,20.0161,VALID,157,VALID,0,
2008-07-30, 01:13:00,VALID,916.774,VALID,0,VALID,100,VALID,-0.0509425,VALID,20.0058,VALID,145,VALID,0.272852,
2008-07-30, 01:14:00,VALID,916.771,VALID,0,VALID,100,VALID,-0.0849042,VALID,19.9869,VALID,129,VALID,0.937318,
2008-07-30, 01:15:00,VALID,916.758,VALID,0,VALID,100,VALID,-0.0509425,VALID,19.9444,VALID,134,VALID,0.871094,
2008-07-30, 01:16:00,VALID,916.764,VALID,0,VALID,100,VALID,-0.0509425,VALID,19.886,VALID,152,VALID,0.821403,
2008-07-30, 01:17:00,VALID,916.769,VALID,0,VALID,100,VALID,-0.0339617,VALID,19.8601,VALID,155,VALID,0.652253,
2008-07-30, 01:18:00,VALID,916.78,VALID,0,VALID,100,VALID,-0.0509425,VALID,19.8443,VALID,189,VALID,0.00639205,
2008-07-30, 01:19:00,VALID,916.789,VALID,0,VALID,100,VALID,-0.0849042,VALID,19.8341,VALID,190,VALID,0,
2008-07-30, 01:20:00,VALID,916.769,VALID,0,VALID,100,VALID,-0.0509425,VALID,19.8438,VALID,178,VALID,0.450068,
2008-07-30, 01:21:00,VALID,916.753,VALID,0,VALID,100,VALID,-0.0679233,VALID,19.8241,VALID,170,VALID,0.614383,
2008-07-30, 01:22:00,VALID,916.759,VALID,0,VALID,100,VALID,-0.0679233,VALID,19.8051,VALID,157,VALID,0.654576,
2008-07-30, 01:23:00,VALID,916.749,VALID,0,VALID,100,VALID,-0.0169808,VALID,19.7692,VALID,140,VALID,1.01527,
2008-07-30, 01:24:00,VALID,916.735,VALID,0,VALID,100,VALID,-0.0509425,VALID,19.7268,VALID,137,VALID,1.20143,
2008-07-30, 01:25:00,VALID,916.747,VALID,0,VALID,100,VALID,-0.0339617,VALID,19.6878,VALID,119,VALID,1.08505,
2008-07-30, 01:26:00,VALID,916.75,VALID,0,VALID,100,VALID,-0.0509425,VALID,19.6359,VALID,117,VALID,1.0787,
2008-07-30, 01:27:00,VALID,916.749,VALID,0,VALID,100,VALID,-0.0679233,VALID,19.5743,VALID,108,VALID,1.1612,
2008-07-30, 01:28:00,VALID,916.748,VALID,0,VALID,100,VALID,-0.0679233,VALID,19.5453,VALID,129,VALID,0.916159,
2008-07-30, 01:29:00,VALID,916.728,VALID,0,VALID,100,VALID,-0.0849042,VALID,19.543,VALID,126,VALID,1.12678,
2008-07-30, 01:30:00,VALID,916.717,VALID,0,VALID,100,VALID,-0.0679233,VALID,19.5258,VALID,131,VALID,0.593564,
2008-07-30, 01:31:00,VALID,916.684,VALID,0,VALID,100,VALID,-0.0679233,VALID,19.5361,VALID,144,VALID,0.734561,
2008-07-30, 01:32:00,VALID,916.679,VALID,0,VALID,100,VALID,-0.101885,VALID,19.5425,VALID,141,VALID,1.21566,
2008-07-30, 01:33:00,VALID,916.641,VALID,0,VALID,100,VALID,-0.0679233,VALID,19.5388,VALID,133,VALID,1.35192,
2008-07-30, 01:34:00,VALID,916.618,VALID,0,VALID,100,VALID,-0.0849042,VALID,19.5326,VALID,119,VALID,0.96657,
2008-07-30, 01:35:00,VALID,916.594,VALID,0,VALID,100,VALID,-0.0679233,VALID,19.5356,VALID,122,VALID,1.31303,
2008-07-30, 01:36:00,VALID,916.568,VALID,0,VALID,100,VALID,-0.0509425,VALID,19.5291,VALID,128,VALID,1.09654,
2008-07-30, 01:37:00,VALID,916.558,VALID,0,VALID,100,VALID,-0.0849042,VALID,19.5293,VALID,143,VALID,0.96532,
2008-07-30, 01:38:00,VALID,916.547,VALID,0,VALID,100,VALID,-0.0679233,VALID,19.5291,VALID,156,VALID,0.445898,
2008-07-30, 01:39:00,VALID,916.55,VALID,0,VALID,100,VALID,-0.0509425,VALID,19.5288,VALID,138,VALID,0.295898,
2008-07-30, 01:40:00,VALID,916.522,VALID,0,VALID,100,VALID,-0.0339617,VALID,19.5288,VALID,136,VALID,0.806463,
2008-07-30, 01:41:00,VALID,916.508,VALID,0,VALID,100,VALID,-0.0169808,VALID,19.5386,VALID,133,VALID,1.23528,
2008-07-30, 01:42:00,VALID,916.503,VALID,0,VALID,100,VALID,-0.0339617,VALID,19.5548,VALID,141,VALID,1.16815,
2008-07-30, 01:43:00,VALID,916.489,VALID,0,VALID,100,VALID,-0.0339617,VALID,19.5708,VALID,139,VALID,0.503906,
2008-07-30, 01:44:00,VALID,916.478,VALID,0,VALID,100,VALID,-0.0169808,VALID,19.584,VALID,143,VALID,1.09593,
2008-07-30, 01:45:00,VALID,916.464,VALID,0,VALID,100,VALID,-0.0849042,VALID,19.6005,VALID,144,VALID,0.855469,
2008-07-30, 01:46:00,VALID,916.448,VALID,0,VALID,100,VALID,-0.0509425,VALID,19.6035,VALID,142,VALID,0.746466,
2008-07-30, 01:47:00,VALID,916.442,VALID,0,VALID,100,VALID,-0.101885,VALID,19.6232,VALID,138,VALID,0.797057,
2008-07-30, 01:48:00,VALID,916.442,VALID,0,VALID,100,VALID,-0.0169808,VALID,19.6294,VALID,141,VALID,0.376524,
2008-07-30, 01:49:00,VALID,916.442,VALID,0,VALID,100,VALID,-0.0339617,VALID,19.6362,VALID,129,VALID,1.07298,
2008-07-30, 01:50:00,VALID,916.444,VALID,0,VALID,100,VALID,-0.0679233,VALID,19.6134,VALID,126,VALID,1.13725,
2008-07-30, 01:51:00,VALID,916.429,VALID,0,VALID,100,VALID,-0.0679233,VALID,19.5965,VALID,116,VALID,0.977493,
2008-07-30, 01:52:00,VALID,916.416,VALID,0,VALID,100,VALID,-0.0679233,VALID,19.597,VALID,106,VALID,1.03367,
2008-07-30, 01:53:00,VALID,916.417,VALID,0,VALID,100,VALID,-0.0339617,VALID,19.604,VALID,107,VALID,1.14644,
2008-07-30, 01:54:00,VALID,916.4,VALID,0,VALID,100,VALID,-0.0679233,VALID,19.5872,VALID,110,VALID,1.07385,
2008-07-30, 01:55:00,VALID,916.388,VALID,0,VALID,100,VALID,-0.101885,VALID,19.5812,VALID,99,VALID,0.94566,
2008-07-30, 01:56:00,VALID,916.367,VALID,0,VALID,100,VALID,-0.0679233,VALID,19.5583,VALID,103,VALID,0.874467,
2008-07-30, 01:57:00,VALID,916.356,VALID,0,VALID,100,VALID,-0.0509425,VALID,19.5353,VALID,99,VALID,1.06014,
2008-07-30, 01:58:00,VALID,916.36,VALID,0,VALID,100,VALID,-0.0339617,VALID,19.5191,VALID,105,VALID,1.00866,
2008-07-30, 01:59:00,VALID,916.335,VALID,0,VALID,100,VALID,-0.0849042,VALID,19.4966,VALID,101,VALID,0.994665,
2008-07-30, 02:00:00,VALID,916.337,VALID,0,VALID,99.8985,VALID,-0.0679233,VALID,19.4712,VALID,122,VALID,1.28976,
2008-07-30, 02:01:00,VALID,916.329,VALID,0,VALID,99.7587,VALID,-0.0679233,VALID,19.4544,VALID,130,VALID,0.485618,
2008-07-30, 02:02:00,VALID,916.305,VALID,0,VALID,99.7014,VALID,-0.0339617,VALID,19.454,VALID,142,VALID,0.00550426,
2008-07-30, 02:03:00,VALID,916.301,VALID,0,VALID,99.6086,VALID,-0.0509425,VALID,19.4804,VALID,143,VALID,0.0314236,
2008-07-30, 02:04:00,VALID,916.298,VALID,0,VALID,99.4878,VALID,-0.0849042,VALID,19.4934,VALID,144,VALID,0,
2008-07-30, 02:05:00,VALID,916.284,VALID,0,VALID,99.4344,VALID,-0.0849042,VALID,19.4931,VALID,156,VALID,0.000363372,
2008-07-30, 02:06:00,VALID,916.269,VALID,0,VALID,99.3721,VALID,-0.101885,VALID,19.5131,VALID,146,VALID,0.101763,
2008-07-30, 02:07:00,VALID,916.277,VALID,0,VALID,99.2907,VALID,-0.0339617,VALID,19.5029,VALID,128,VALID,0.00111607,
2008-07-30, 02:08:00,VALID,916.265,VALID,0,VALID,99.1279,VALID,-0.0849042,VALID,19.4896,VALID,120,VALID,0,
2008-07-30, 02:09:00,VALID,916.257,VALID,0,VALID,99.0491,VALID,-0.101885,VALID,19.4804,VALID,142,VALID,0.109193,
2008-07-30, 02:10:00,VALID,916.261,VALID,0,VALID,98.8596,VALID,-0.0339617,VALID,19.4734,VALID,143,VALID,0.164063,
2008-07-30, 02:11:00,VALID,916.25,VALID,0,VALID,98.6574,VALID,-0.0679233,VALID,19.4574,VALID,137,VALID,0.204883,
2008-07-30, 02:12:00,VALID,916.247,VALID,0,VALID,98.4807,VALID,-0.0849042,VALID,19.4442,VALID,132,VALID,0.9375,
2008-07-30, 02:13:00,VALID,916.25,VALID,0,VALID,98.2849,VALID,-0.0679233,VALID,19.448,VALID,138,VALID,1.06694,
2008-07-30, 02:14:00,VALID,916.246,VALID,0,VALID,98.0216,VALID,-0.0679233,VALID,19.4317,VALID,134,VALID,1.3165,
2008-07-30, 02:15:00,VALID,916.266,VALID,0,VALID,97.836,VALID,-0.101885,VALID,19.435,VALID,128,VALID,1.15402,
2008-07-30, 02:16:00,VALID,916.272,VALID,0,VALID,97.705,VALID,-0.101885,VALID,19.451,VALID,131,VALID,1.4391,
2008-07-30, 02:17:00,VALID,916.289,VALID,0,VALID,97.5359,VALID,-0.0679233,VALID,19.4477,VALID,131,VALID,1.02214,
2008-07-30, 02:18:00,VALID,916.309,VALID,0,VALID,97.5308,VALID,-0.0679233,VALID,19.4542,VALID,119,VALID,1.006,
2008-07-30, 02:19:00,VALID,916.315,VALID,0,VALID,97.5206,VALID,-0.0849042,VALID,19.4542,VALID,123,VALID,0.607973,
2008-07-30, 02:20:00,VALID,916.312,VALID,0,VALID,97.5461,VALID,-0.0849042,VALID,19.4639,VALID,123,VALID,0.708452,
2008-07-30, 02:21:00,VALID,916.303,VALID,0,VALID,97.5422,VALID,-0.0849042,VALID,19.4475,VALID,114,VALID,0.090843,
2008-07-30, 02:22:00,VALID,916.286,VALID,0,VALID,97.6236,VALID,-0.101885,VALID,19.4642,VALID,113,VALID,0.253534,
2008-07-30, 02:23:00,VALID,916.283,VALID,0,VALID,97.658,VALID,-0.101885,VALID,19.4574,VALID,112,VALID,0.450218,
2008-07-30, 02:24:00,VALID,916.269,VALID,0,VALID,97.6936,VALID,-0.0509425,VALID,19.4542,VALID,121,VALID,0.0861328,
2008-07-30, 02:25:00,VALID,916.267,VALID,0,VALID,97.705,VALID,-0.101885,VALID,19.431,VALID,126,VALID,0,
2008-07-30, 02:26:00,VALID,916.239,VALID,0,VALID,97.8385,VALID,-0.101885,VALID,19.4347,VALID,134,VALID,0.00109012,
2008-07-30, 02:27:00,VALID,916.217,VALID,0,VALID,97.7533,VALID,-0.0849042,VALID,19.4218,VALID,149,VALID,0.915698,
2008-07-30, 02:28:00,VALID,916.199,VALID,0,VALID,97.6872,VALID,-0.0339617,VALID,19.4118,VALID,146,VALID,0.0399709,
2008-07-30, 02:29:00,VALID,916.197,VALID,0,VALID,97.5995,VALID,-0.101885,VALID,19.4153,VALID,145,VALID,0.188194,
2008-07-30, 02:30:00,VALID,916.18,VALID,0,VALID,97.279,VALID,-0.0679233,VALID,19.402,VALID,138,VALID,0.613735,
2008-07-30, 02:31:00,VALID,916.18,VALID,0,VALID,96.9688,VALID,-0.0509425,VALID,19.4115,VALID,134,VALID,1.02763,
2008-07-30, 02:32:00,VALID,916.176,VALID,0,VALID,96.7577,VALID,-0.0849042,VALID,19.4445,VALID,134,VALID,0.639101,
2008-07-30, 02:33:00,VALID,916.162,VALID,0,VALID,96.4296,VALID,-0.0849042,VALID,19.4772,VALID,134,VALID,0.590863,
2008-07-30, 02:34:00,VALID,916.164,VALID,0,VALID,96.1715,VALID,-0.0679233,VALID,19.4864,VALID,137,VALID,0,
2008-07-30, 02:35:00,VALID,916.152,VALID,0,VALID,96.0061,VALID,-0.0679233,VALID,19.5091,VALID,139,VALID,0,
2008-07-30, 02:36:00,VALID,916.152,VALID,0,VALID,95.687,VALID,-0.0339617,VALID,19.5054,VALID,139,VALID,0,
2008-07-30, 02:37:00,VALID,916.156,VALID,0,VALID,95.4339,VALID,-0.0509425,VALID,19.5024,VALID,134,VALID,0.0867388,
2008-07-30, 02:38:00,VALID,916.152,VALID,0,VALID,95.2025,VALID,-0.0509425,VALID,19.5126,VALID,138,VALID,0.268643,
2008-07-30, 02:39:00,VALID,916.141,VALID,0,VALID,95.0067,VALID,-0.0509425,VALID,19.5096,VALID,139,VALID,0.416319,
2008-07-30, 02:40:00,VALID,916.162,VALID,0,VALID,94.9774,VALID,-0.0679233,VALID,19.5091,VALID,138,VALID,1.11319,
2008-07-30, 02:41:00,VALID,916.147,VALID,0,VALID,94.9698,VALID,-0.0849042,VALID,19.5188,VALID,136,VALID,0.461719,
2008-07-30, 02:42:00,VALID,916.153,VALID,0,VALID,95.1465,VALID,-0.0849042,VALID,19.5253,VALID,136,VALID,0.975632,
2008-07-30, 02:43:00,VALID,916.147,VALID,0,VALID,95.5153,VALID,-0.0509425,VALID,19.5378,VALID,135,VALID,0.951308,
2008-07-30, 02:44:00,VALID,916.142,VALID,0,VALID,95.9731,VALID,-0.0509425,VALID,19.5548,VALID,132,VALID,0.930414,
2008-07-30, 02:45:00,VALID,916.13,VALID,0,VALID,96.4754,VALID,-0.0509425,VALID,19.5645,VALID,142,VALID,1.02077,
2008-07-30, 02:46:00,VALID,916.125,VALID,0,VALID,96.9865,VALID,-0.0509425,VALID,19.5772,VALID,141,VALID,0.911644,
2008-07-30, 02:47:00,VALID,916.1,VALID,0,VALID,97.2078,VALID,-0.0679233,VALID,19.5613,VALID,139,VALID,0.599144,
2008-07-30, 02:48:00,VALID,916.084,VALID,0,VALID,97.3871,VALID,-0.0339617,VALID,19.5253,VALID,127,VALID,0.804874,
2008-07-30, 02:49:00,VALID,916.085,VALID,0,VALID,97.8118,VALID,-0.0679233,VALID,19.5059,VALID,140,VALID,0.211664,
2008-07-30, 02:50:00,VALID,916.071,VALID,0,VALID,98.0916,VALID,-0.0509425,VALID,19.4896,VALID,143,VALID,0.0392401,
2008-07-30, 02:51:00,VALID,916.085,VALID,0,VALID,98.1768,VALID,-0.0509425,VALID,19.434,VALID,161,VALID,0.00436047,
2008-07-30, 02:52:00,VALID,916.085,VALID,0,VALID,98.1971,VALID,-0.0509425,VALID,19.4023,VALID,154,VALID,0.0484375,
2008-07-30, 02:53:00,VALID,916.108,VALID,0,VALID,98.1971,VALID,-0.0849042,VALID,19.3501,VALID,162,VALID,0.0605469,
2008-07-30, 02:54:00,VALID,916.112,VALID,0,VALID,98.2683,VALID,-0.0679233,VALID,19.3209,VALID,161,VALID,0.276105,
2008-07-30, 02:55:00,VALID,916.132,VALID,0,VALID,98.2836,VALID,-0.0849042,VALID,19.295,VALID,187,VALID,0.00533537,
2008-07-30, 02:56:00,VALID,916.142,VALID,0,VALID,98.3217,VALID,-0.0339617,VALID,19.2815,VALID,185,VALID,0,
2008-07-30, 02:57:00,VALID,916.16,VALID,0,VALID,98.2048,VALID,-0.0339617,VALID,19.262,VALID,171,VALID,0,
2008-07-30, 02:58:00,VALID,916.154,VALID,0,VALID,98.0102,VALID,-0.0679233,VALID,19.2234,VALID,169,VALID,0,
2008-07-30, 02:59:00,VALID,916.144,VALID,0,VALID,97.9199,VALID,-0.0509425,VALID,19.1909,VALID,157,VALID,0,
2008-07-30, 03:00:00,VALID,916.135,VALID,0,VALID,97.9809,VALID,-0.0679233,VALID,19.1817,VALID,150,VALID,0,
2008-07-30, 03:01:00,VALID,916.134,VALID,0,VALID,98.0649,VALID,-0.0509425,VALID,19.2076,VALID,150,VALID,0,
2008-07-30, 03:02:00,VALID,916.125,VALID,0,VALID,97.9657,VALID,-0.0509425,VALID,19.1942,VALID,150,VALID,0,
2008-07-30, 03:03:00,VALID,916.114,VALID,0,VALID,97.9199,VALID,-0.0679233,VALID,19.1817,VALID,150,VALID,0,
2008-07-30, 03:04:00,VALID,916.098,VALID,0,VALID,97.8182,VALID,-4.62593e-018,VALID,19.1677,VALID,150,VALID,0,
2008-07-30, 03:05:00,VALID,916.083,VALID,0,VALID,97.6389,VALID,0.0509425,VALID,19.1121,VALID,150,VALID,0,
2008-07-30, 03:06:00,VALID,916.071,VALID,0,VALID,97.2867,VALID,0,VALID,19.0342,VALID,150,VALID,0,
2008-07-30, 03:07:00,VALID,916.053,VALID,0,VALID,96.7958,VALID,0.0849042,VALID,18.9694,VALID,131,VALID,0.0565378,
2008-07-30, 03:08:00,VALID,916.057,VALID,0,VALID,96.2376,VALID,0.0509425,VALID,18.9659,VALID,124,VALID,0,
2008-07-30, 03:09:00,VALID,916.05,VALID,0,VALID,95.8319,VALID,0.0169808,VALID,18.9986,VALID,124,VALID,0,
2008-07-30, 03:10:00,VALID,916.048,VALID,0,VALID,95.5471,VALID,0,VALID,19.0243,VALID,124,VALID,0,
2008-07-30, 03:11:00,VALID,916.042,VALID,0,VALID,95.4543,VALID,-0.0679233,VALID,19.0746,VALID,124,VALID,0,
2008-07-30, 03:12:00,VALID,916.037,VALID,0,VALID,95.3742,VALID,-0.0849042,VALID,19.0908,VALID,124,VALID,0,
2008-07-30, 03:13:00,VALID,916.036,VALID,0,VALID,95.1236,VALID,-0.101885,VALID,19.0779,VALID,124,VALID,0,
2008-07-30, 03:14:00,VALID,916.021,VALID,0,VALID,94.9647,VALID,-0.0679233,VALID,19.0387,VALID,124,VALID,0,
2008-07-30, 03:15:00,VALID,916.02,VALID,0,VALID,95.041,VALID,-0.0849042,VALID,18.9935,VALID,124,VALID,0,
2008-07-30, 03:16:00,VALID,916.01,VALID,0,VALID,95.0944,VALID,-0.0509425,VALID,18.9543,VALID,124,VALID,0,
2008-07-30, 03:17:00,VALID,916.002,VALID,0,VALID,95.2915,VALID,-0.0679233,VALID,18.9221,VALID,124,VALID,0,
2008-07-30, 03:18:00,VALID,915.997,VALID,0,VALID,95.172,VALID,-0.0679233,VALID,18.8698,VALID,124,VALID,0,
2008-07-30, 03:19:00,VALID,915.976,VALID,0,VALID,95.2419,VALID,-0.0339617,VALID,18.8565,VALID,124,VALID,0,
2008-07-30, 03:20:00,VALID,915.971,VALID,0,VALID,95.3487,VALID,-0.0169808,VALID,18.8825,VALID,124,VALID,0,
2008-07-30, 03:21:00,VALID,915.957,VALID,0,VALID,95.3538,VALID,-0.0679233,VALID,18.8955,VALID,124,VALID,0,
2008-07-30, 03:22:00,VALID,915.963,VALID,0,VALID,95.4962,VALID,-0.0679233,VALID,18.9089,VALID,124,VALID,0,
2008-07-30, 03:23:00,VALID,915.961,VALID,0,VALID,95.5115,VALID,-0.0509425,VALID,18.8528,VALID,124,VALID,0,
2008-07-30, 03:24:00,VALID,915.972,VALID,0,VALID,95.7505,VALID,-0.0169808,VALID,18.7687,VALID,124,VALID,0,
2008-07-30, 03:25:00,VALID,915.966,VALID,0,VALID,96.1778,VALID,-0.0339617,VALID,18.7138,VALID,124,VALID,0,
2008-07-30, 03:26:00,VALID,915.975,VALID,0,VALID,96.3558,VALID,-0.0169808,VALID,18.6547,VALID,124,VALID,0,
2008-07-30, 03:27:00,VALID,915.991,VALID,0,VALID,96.4258,VALID,-0.0339617,VALID,18.61,VALID,124,VALID,0,
2008-07-30, 03:28:00,VALID,915.99,VALID,0,VALID,96.6458,VALID,-0.0509425,VALID,18.5836,VALID,124,VALID,0,
2008-07-30, 03:29:00,VALID,915.986,VALID,0,VALID,96.8263,VALID,0,VALID,18.5771,VALID,124,VALID,0,
2008-07-30, 03:30:00,VALID,915.99,VALID,0,VALID,96.8988,VALID,-0.0509425,VALID,18.6167,VALID,124,VALID,0,
2008-07-30, 03:31:00,VALID,915.98,VALID,0,VALID,96.5415,VALID,-0.0679233,VALID,18.5379,VALID,124,VALID,0,
2008-07-30, 03:32:00,VALID,915.984,VALID,0,VALID,96.8899,VALID,-0.0679233,VALID,18.4997,VALID,124,VALID,0,
2008-07-30, 03:33:00,VALID,916.01,VALID,0,VALID,97.0768,VALID,-0.0679233,VALID,18.4803,VALID,124,VALID,0,
2008-07-30, 03:34:00,VALID,916.022,VALID,0,VALID,97.204,VALID,-0.0169808,VALID,18.4742,VALID,124,VALID,0,
2008-07-30, 03:35:00,VALID,916.027,VALID,0,VALID,97.3159,VALID,-0.0169808,VALID,18.4541,VALID,124,VALID,0,
2008-07-30, 03:36:00,VALID,916.045,VALID,0,VALID,97.4036,VALID,-0.0339617,VALID,18.4606,VALID,124,VALID,0,
2008-07-30, 03:37:00,VALID,916.068,VALID,0,VALID,97.4596,VALID,0,VALID,18.4474,VALID,124,VALID,0,